Terug naar catalogus

STARLINK-34668

ActiefCommunicatieVLEO
NORAD 64814·PAYLOAD·🇺🇸 United States

Gelanceerd Jul 16, 2025 vanaf Vandenberg Space Force Base

Loading…

Volgende Passages (komende 24 uur)

TLE

VersSource: CelesTrak SupGP

Epoch: Sep 14, 2026, 21:15 UTC

1 64814C 25150AA  26257.88590278 -.00024229  00000+0 -20301-2 0  2570
2 64814  70.0027  17.3281 0003423 272.4693 272.5371 14.98349439    10

Volg STARLINK-34668 in realtime met AllMySat

Download on the App Store